Location: Brantley
(31.5822°N, 86.2569°W)
Time: 20:40:57
(UTC+00:00)

Injun/Solrad 3 - Pass Details

Date: 18 February 2026
Orbit: 872 x 984 km, 66.8° (Epoch: 8 March)

Event Time Altitude Azimuth Distance (km) Brightness Sun altitude
Rises 02:50:09 0° 329° (NNW) 3,600 11.4 -42.3°
Reaches altitude 10° 02:52:42 10° 325° (NW) 2,669 10.7 -42.8°
Enters shadow 02:54:07 18° 322° (NW) 2,170 10.2 -43.1°
Maximum altitude 02:58:46 57° 249° (WSW) 1,128 - -44.0°
Drops below altitude 10° 03:04:58 10° 172° (S) 2,715 - -45.3°
Sets 03:07:36 0° 168° (SSE) 3,667 - -45.9°
